Weather in Trinidad

Bolivia     14°50′52″S   64°53′44″W
temp.,
°C
wind,
m/s
gust,
m/s
humid.,
%
clouds,
%
prec.,
mm/h
press.,
hPa
HPBL,
m
13 june, sun
sun1323:00+16s117814 0.0 101619
02:00+15s118020 0.0 101616
05:00+14sse12780 0.0 101628
08:00+16sse13730 0.0 1018112
11:00+23se23500 0.0 1018530
14:00+27sse11440 0.0 1014864
17:00+24sw00640 0.0 101211
20:00+18ssw11770 0.0 101411
14 june, mon
mon1423:00+18ssw11795 0.0 101511
02:00+17wsw11800 0.0 101411
05:00+16ssw11830 0.0 101411
08:00+19wsw11775 0.0 101665
11:00+26nw12540 0.0 1016562
14:00+28wnw23520 0.0 10131045
17:00+26wnw12710 0.0 101242
20:00+21wsw11820 0.0 101411
15 june, tue
tue1523:00+20s11860 0.0 101511
02:00+20s118823 0.0 101425
05:00+19s22900 0.0 101544
08:00+21s25840 0.0 1018171
11:00+27sse23570 0.0 1018639
14:00+30sse22505 0.0 10151340
17:00+27ese12685 0.0 101340
20:00+23s22805 0.0 101422
16 june, wed
wed1623:00+21sse268499 0.0 1016137
02:00+19sse258036 0.0 1015113
05:00+18sse298239 0.0 1015230
08:00+20se3117752 0.0 1017385
11:00+25se355862 0.0 1017644
14:00+28sse235283 0.0 10141073
17:00+26se126621 0.0 101280
20:00+21s2277100 0.0 101431
17 june, thu
thu1723:00+20s2783100 0.0 1015144
02:00+19sse288176 0.0 1016203
05:00+18sse2108045 0.0 1016277
08:00+18se310745 0.0 1018404
11:00+23se355611 0.0 1018683
14:00+26se34526 0.0 1015973
17:00+24sse246535 0.0 1013206
20:00+19ssw38835 0.0 1016240